Lapse_Rate
5.1 5.0 4.9 4.8 4.7 5.2 5.3 5.0 4.7 4.7 4.8 5.3 5.1 5.3 5.4 5.3 5.5 5.7 5.9 5.8 6.2 6.0 6.1 5.6 5.8 5.7 5.6 5.5 5.6 4.9 5.4 5.0 5.7 5.6 5.5 5.6 5.8 6.1 5.9 5.8 6.0 6.1 5.7 5.3 4.7 4.5 4.9 5.6 5.5 5.5 5.6 5.5 5.7 5.8
4.9 4.8 4.6 4.0 4.5 5.4 5.8 5.5 5.1 4.9 4.8 5.0 5.2 5.2 5.2 5.3 5.5 5.2 5.5 5.4 5.9 6.1 6.6 6.1 5.9 6.0 5.6 5.2 5.6 5.5 5.3 5.7 6.0 5.8 5.8 5.8 5.8 6.1 6.0 5.8 6.0 5.7 5.6 5.5 5.4 5.5 5.6 5.4 5.3 5.3 5.4 5.6 5.6 5.7
4.7 4.6 4.0 4.0 4.3 4.5 4.8 4.9 4.8 4.6 4.6 4.7 4.9 5.1 5.2 5.4 5.5 5.3 5.2 5.3 5.8 6.2 6.1 5.9 6.1 5.7 6.1 5.9 5.7 5.6 5.8 5.3 6.0 6.1 6.3 6.2 6.1 6.3 6.0 5.9 6.0 5.7 5.6 5.4 5.3 5.4 5.2 5.0 5.1 5.3 5.4 5.5 5.5 5.6
4.5 4.3 3.9 4.0 4.2 4.2 4.3 4.3 4.3 4.3 4.5 4.7 4.8 4.9 5.0 5.2 5.5 5.2 5.1 5.3 5.5 6.4 6.0 6.3 6.1 5.8 6.1 5.9 5.5 5.5 5.8 5.3 5.7 6.1 6.3 6.1 6.0 6.0 6.1 5.9 5.9 5.7 5.6 5.4 5.3 5.2 4.8 5.0 5.1 5.1 5.3 5.5 5.5 5.5
4.4 4.0 3.9 4.0 4.1 4.1 4.1 4.2 4.3 4.3 4.4 4.6 4.7 4.7 4.9 5.1 5.3 5.1 5.0 5.1 5.6 5.7 6.0 6.3 6.5 6.4 5.8 5.8 5.7 5.4 5.4 5.0 5.1 5.8 5.8 5.8 5.7 5.9 6.1 5.9 5.8 6.0 5.8 5.5 5.5 5.0 4.9 4.8 4.9 5.1 5.3 5.5 5.4 5.3
4.1 3.9 3.9 4.1 4.2 4.2 4.4 4.4 4.4 4.5 4.5 4.8 5.1 4.9 4.8 5.1 5.3 4.9 4.9 4.9 5.6 5.7 5.8 6.2 6.8 6.6 6.2 6.2 6.3 5.7 5.5 5.1 5.3 5.5 5.7 5.7 5.7 5.7 5.6 5.7 6.1 6.1 5.7 5.5 5.3 4.9 4.7 4.7 5.1 5.2 5.5 5.4 5.2 5.1
4.0 4.0 4.1 4.2 4.3 4.4 4.6 4.7 4.9 5.6 6.6 7.1 6.8 6.6 5.3 4.8 5.1 4.9 5.0 5.2 5.6 5.7 5.9 5.7 6.1 6.4 6.5 7.0 6.2 5.8 5.7 5.4 5.3 5.3 5.4 5.6 5.5 5.4 5.5 5.8 6.0 6.1 5.8 5.5 5.3 5.0 4.8 5.0 5.1 5.4 5.4 5.2 5.2 5.1
4.1 4.3 4.4 4.3 4.4 4.6 4.8 5.4 6.9 8.2 8.4 8.1 8.3 8.1 6.7 5.1 5.0 5.1 5.1 5.3 5.7 6.0 5.9 5.8 5.8 6.3 6.6 6.7 6.0 5.9 5.7 5.7 5.5 5.2 5.2 5.3 5.4 5.5 5.2 6.1 6.4 6.3 6.0 5.6 5.1 4.9 4.8 4.9 5.1 5.3 5.2 5.2 5.0 5.0
4.5 4.5 4.5 4.4 4.6 4.9 5.3 6.8 8.0 8.2 8.3 8.2 8.3 8.2 7.6 5.8 5.3 5.6 5.6 6.3 6.1 6.2 6.1 5.8 5.6 6.0 6.2 6.7 6.2 5.8 5.6 5.3 5.6 5.4 5.4 5.3 5.0 4.9 6.1 6.1 6.5 6.3 6.1 5.6 4.9 4.8 4.8 4.9 5.0 5.1 5.1 5.0 4.8 4.8
4.7 4.7 4.6 4.6 4.9 5.1 6.3 7.6 8.2 8.1 8.1 8.1 8.0 8.0 7.3 6.7 6.4 5.9 5.7 5.6 6.2 6.4 6.4 6.1 6.2 6.4 6.1 6.5 5.4 5.8 5.3 5.5 5.6 5.5 5.5 4.7 5.1 6.3 5.8 6.1 6.5 6.2 6.0 5.5 5.3 4.9 4.8 4.8 4.8 5.0 5.0 4.8 4.7 4.8
4.9 4.9 4.8 4.9 5.2 5.5 6.8 7.7 8.1 8.2 8.1 7.9 7.8 7.7 7.3 7.0 6.5 5.8 5.6 6.0 6.8 6.6 6.5 6.4 6.7 6.4 6.3 6.3 5.9 5.5 5.9 6.0 5.5 5.2 5.0 4.6 5.6 7.3 6.4 6.0 6.4 6.1 5.9 5.2 5.1 4.7 4.6 4.6 4.8 5.0 4.9 4.7 4.6 4.7
5.1 5.1 5.1 5.2 5.4 5.7 6.8 7.6 7.8 7.8 7.9 8.0 7.7 7.7 7.6 7.3 6.7 6.0 5.7 6.2 7.0 6.9 6.9 6.5 6.6 6.2 6.2 6.2 6.0 5.9 6.1 6.1 6.3 5.4 4.9 4.7 6.7 7.1 6.6 6.2 6.3 6.2 5.7 5.0 4.9 4.7 4.6 4.6 4.7 4.7 4.7 4.7 4.5 4.6
5.3 5.3 5.4 5.5 5.6 5.8 6.3 7.1 7.5 7.7 7.8 8.0 7.8 7.7 6.8 7.4 6.8 6.1 6.5 6.4 6.7 6.9 7.0 7.3 6.6 5.9 6.4 6.3 6.3 6.2 6.2 6.1 5.5 5.6 4.7 5.3 7.0 7.0 6.7 6.6 6.5 6.2 5.5 4.7 4.6 4.6 4.5 4.4 4.3 4.4 4.5 4.4 4.3 4.4
5.6 5.5 5.6 5.6 5.8 5.9 6.2 6.4 6.7 7.3 7.1 6.8 7.0 7.0 6.8 7.4 7.0 6.6 6.7 7.1 7.2 7.1 7.1 7.3 6.9 6.6 6.7 6.8 6.6 6.6 6.0 5.6 5.7 5.3 5.2 6.2 7.2 7.1 6.9 6.9 6.7 6.4 5.7 4.8 4.4 4.4 4.3 4.1 4.3 4.3 4.3 4.2 4.4 4.3
5.9 5.8 5.8 5.9 5.9 6.1 6.1 6.3 6.9 6.9 6.6 6.3 6.2 6.4 6.2 6.7 7.2 6.8 6.9 7.4 7.7 7.8 7.3 7.1 6.3 6.0 6.4 6.5 6.2 5.9 6.1 6.1 5.5 5.2 5.4 6.7 7.3 6.6 6.5 6.6 6.5 6.3 5.6 4.8 4.3 4.2 4.1 4.1 4.2 4.2 4.0 4.1 4.2 4.0
6.2 6.0 6.0 6.0 5.9 5.9 5.9 6.2 6.4 6.5 6.2 6.1 5.7 6.2 7.0 6.7 7.3 7.2 7.0 7.3 7.1 7.0 6.9 6.7 6.4 6.2 6.3 6.2 6.2 6.2 5.6 5.6 6.3 7.1 7.2 7.2 6.9 6.6 6.6 6.6 6.2 5.7 4.9 4.5 4.2 4.0 4.0 4.0 4.0 4.0 4.0 4.1 4.0 3.9
6.3 6.2 6.1 5.9 5.9 5.8 5.7 5.8 6.2 6.3 6.0 5.9 6.3 6.8 6.7 6.3 7.0 7.7 7.5 7.4 7.3 6.9 6.9 6.7 6.9 6.6 6.2 6.1 6.1 5.6 5.3 6.4 7.4 7.5 7.4 7.2 6.5 6.6 6.7 6.5 5.8 5.1 4.5 4.1 3.9 3.9 4.0 4.0 4.0 4.0 4.0 4.0 4.0 3.8
6.3 6.6 6.2 5.9 5.8 5.4 5.4 6.2 6.4 6.2 5.7 5.8 6.4 6.8 6.1 6.1 7.1 7.5 7.8 7.9 7.6 7.3 6.8 6.5 6.6 6.3 6.3 6.2 6.0 5.6 6.1 6.8 7.0 7.0 7.3 7.3 6.9 6.8 6.3 5.9 5.4 4.8 4.4 4.1 3.9 4.0 3.8 3.9 3.8 3.9 4.0 4.0 3.8 3.8
6.5 6.5 6.0 5.9 5.5 5.3 5.9 6.3 6.3 6.0 6.3 6.9 6.5 6.4 6.0 6.5 7.0 7.4 7.5 7.7 7.7 7.3 6.6 6.6 6.9 6.9 6.6 6.6 6.5 7.2 7.8 7.8 7.3 7.0 6.9 6.9 6.7 6.6 6.0 5.2 4.8 4.5 4.0 3.9 3.9 3.8 3.8 3.6 3.6 3.9 4.0 3.9 3.8 3.8
6.5 6.2 6.0 5.5 5.7 6.2 6.6 6.6 6.2 6.0 6.2 6.7 7.0 6.9 6.9 6.8 7.5 7.7 7.4 7.7 7.8 7.2 6.9 6.7 7.2 7.6 7.7 7.7 8.1 8.0 7.4 7.0 6.9 6.7 6.5 6.4 6.3 5.8 5.1 5.0 4.6 4.2 4.0 3.8 3.7 3.7 3.7 3.4 3.6 3.9 4.0 3.9 3.8 3.7
6.3 6.2 5.8 6.0 6.1 6.2 6.2 6.3 6.1 5.5 6.0 6.5 7.0 6.7 7.0 7.4 7.7 7.7 7.9 7.9 7.6 7.2 6.9 6.7 6.8 7.4 7.3 7.2 7.2 7.3 7.1 6.5 6.3 6.1 6.4 6.5 6.4 6.0 5.1 4.7 3.9 3.7 3.7 3.9 3.8 3.7 3.5 3.5 3.8 4.1 3.9 3.9 3.8 3.7
6.3 6.1 6.0 6.2 6.3 6.5 7.2 7.2 6.6 6.4 6.3 6.4 6.9 7.3 7.1 7.6 7.6 7.6 7.3 7.1 7.0 6.8 6.7 6.6 6.9 7.3 7.3 7.1 6.9 6.6 6.7 6.7 6.2 6.0 6.0 6.1 6.0 5.6 5.1 4.6 3.9 3.7 3.7 3.5 3.4 3.2 3.3 3.7 4.1 3.9 3.8 3.8 3.9 3.9
6.2 5.9 6.4 6.4 6.8 6.9 6.9 7.0 6.9 6.7 6.6 6.9 7.2 7.3 7.2 7.4 7.3 7.4 7.4 6.9 6.7 6.6 6.6 6.6 6.6 6.6 6.8 6.3 6.3 6.5 6.5 6.2 6.0 5.9 5.8 5.4 5.0 4.7 4.3 4.1 3.5 3.6 3.7 3.5 3.2 3.3 3.7 4.1 4.0 3.9 3.9 3.9 4.0 3.8
6.3 6.4 6.4 6.6 7.0 6.6 6.8 6.9 6.8 6.8 6.6 6.6 7.1 7.3 7.1 7.4 7.4 7.2 7.0 6.6 6.6 6.6 6.2 6.0 6.2 6.3 6.3 5.9 5.9 6.5 6.5 6.1 5.7 5.5 5.2 5.1 4.9 4.4 3.8 3.6 3.7 3.3 2.7 2.8 3.2 3.7 4.0 4.1 4.0 3.9 3.9 3.8 3.9 3.7
6.6 6.8 6.6 6.3 6.2 6.6 6.5 6.8 6.9 6.9 6.8 6.4 7.2 7.1 7.2 7.2 6.9 6.7 6.5 6.7 6.8 6.3 6.6 6.3 6.0 6.0 5.6 5.7 5.9 6.1 5.9 5.9 5.6 5.3 5.2 4.7 4.3 4.2 4.3 4.0 3.4 2.9 3.0 3.4 3.7 3.9 4.1 4.1 3.9 3.9 3.9 3.8 3.8 3.8
7.2 7.1 7.1 6.8 6.9 6.9 7.2 7.3 7.4 7.5 6.6 7.1 7.3 7.4 7.2 7.0 6.9 6.6 6.8 7.5 7.4 6.7 5.9 5.7 5.6 5.6 5.7 5.6 5.9 6.1 5.9 5.7 5.4 4.9 4.8 4.6 4.2 4.2 4.5 4.2 3.5 3.3 3.6 3.7 4.0 4.2 4.1 4.0 3.9 3.9 3.8 3.8 3.8 3.7
7.6 7.5 7.4 7.2 7.2 7.5 7.5 7.5 7.9 7.4 6.9 7.3 7.4 7.2 7.3 7.2 6.9 6.9 7.4 6.9 6.6 6.4 6.2 5.9 5.7 5.5 5.4 5.4 5.3 5.5 5.4 5.4 5.0 4.4 4.0 4.1 3.6 3.1 2.9 3.0 3.2 3.4 3.7 3.9 4.2 4.2 4.0 4.0 4.0 3.9 3.8 3.7 3.6 3.4
7.7 7.7 7.9 7.9 7.9 7.4 7.7 7.7 7.4 6.8 6.9 7.1 7.1 7.2 7.2 7.4 7.4 7.5 7.5 7.2 6.9 6.3 5.8 5.6 5.8 5.5 5.0 5.0 5.4 5.5 5.2 4.9 4.8 4.0 3.3 3.3 3.0 2.7 2.7 3.1 3.1 3.5 3.9 4.1 4.2 4.2 4.1 4.0 3.8 3.7 3.6 3.5 3.3 3.2
7.9 7.8 7.8 7.9 8.0 7.8 7.4 7.0 7.1 7.1 7.5 7.4 7.5 7.6 7.3 7.2 7.4 7.5 7.3 7.2 6.9 6.5 6.3 5.9 5.7 5.6 5.4 5.2 5.0 4.9 4.8 5.0 5.0 4.8 4.1 4.1 4.2 4.0 3.6 3.3 3.5 4.0 4.2 4.2 4.2 4.2 4.1 3.8 3.7 3.6 3.4 3.2 3.2 3.2
7.3 7.4 8.0 8.0 7.6 7.1 7.1 7.3 7.5 7.9 7.7 7.5 7.6 7.7 7.5 7.5 7.4 7.2 6.9 7.0 6.9 7.2 6.6 6.0 5.7 5.5 5.5 5.5 5.3 4.9 4.6 4.5 4.4 4.2 4.3 4.0 3.9 3.7 3.6 3.7 4.1 4.4 4.4 4.2 4.2 4.1 3.9 3.7 3.5 3.4 3.2 3.2 3.2 3.1
7.7 8.0 7.7 7.5 6.8 7.1 7.3 7.4 7.3 7.6 7.6 7.5 7.4 7.3 7.3 7.0 7.0 6.8 6.9 7.0 7.1 6.5 6.1 5.7 5.5 5.4 5.4 5.3 5.0 4.6 4.5 4.4 3.8 3.3 2.9 3.1 3.4 3.6 3.8 4.2 4.4 4.4 4.1 4.0 4.0 3.9 3.7 3.6 3.4 3.4 3.3 3.2 3.2 3.1
7.1 7.0 6.7 7.0 7.3 7.4 7.2 7.4 7.3 7.3 7.4 7.0 7.0 7.1 6.9 6.5 6.3 6.4 6.4 6.3 6.4 5.8 5.7 5.4 5.4 5.3 5.2 4.4 3.9 3.8 3.9 4.1 4.1 3.7 3.8 3.9 4.0 4.1 4.3 4.4 4.3 4.1 3.9 4.0 3.9 3.8 3.6 3.6 3.5 3.4 3.3 3.3 3.2 3.2
6.8 7.0 7.1 7.1 7.0 7.0 6.8 6.8 6.9 7.0 6.7 6.4 6.3 6.3 6.0 5.7 5.9 6.3 6.3 6.3 5.9 5.4 5.1 5.0 4.8 4.5 3.8 3.6 3.7 3.6 3.8 4.0 4.1 4.2 4.0 4.1 4.2 4.2 4.2 4.1 4.0 3.9 3.9 3.9 3.8 3.7 3.7 3.6 3.5 3.4 3.3 3.2 3.2 3.3
Wind_Speed
28 28 28 28 27 26 26 26 25 24 23 23 22 20 18 19 16 8 2 8 4 3 8 7 7 0 5 6 5 4 2 3 3 4 4 4 3 6 4 4 6 6 6 3 3 2 6 5 4 6 5 2 2 3
27 28 28 27 26 25 25 25 25 23 24 23 24 21 18 20 17 12 3 7 8 2 4 8 13 11 9 7 9 3 3 4 6 4 1 4 3 2 6 3 1 3 6 5 8 6 4 4 2 2 4 4 3 6
28 28 28 27 26 25 25 25 23 22 22 24 23 23 20 18 16 11 3 3 3 2 6 6 6 6 7 8 7 6 2 4 3 3 4 3 3 4 4 5 3 3 3 3 3 4 6 4 2 4 2 4 5 10
28 28 28 27 26 25 25 24 22 22 22 21 20 20 17 15 14 9 2 3 3 1 3 5 3 6 4 6 17 7 6 2 3 1 3 3 3 4 4 4 4 4 6 6 4 4 2 5 5 6 7 10 12 9
29 27 26 26 25 25 25 23 21 23 20 19 23 18 16 16 11 7 6 6 7 4 2 4 9 5 5 5 21 13 8 5 2 2 2 2 3 4 2 3 2 5 7 5 6 8 5 3 8 10 12 11 12 17
28 27 27 26 25 26 25 24 24 22 20 20 21 22 21 15 9 2 2 5 13 3 3 3 4 4 1 6 13 12 5 4 3 2 2 1 1 3 4 4 6 7 6 4 4 5 4 7 6 4 12 10 10 11
28 28 27 26 27 26 25 24 26 21 22 21 19 22 18 12 3 3 4 2 13 7 2 3 3 3 7 4 3 3 3 3 2 1 1 3 1 3 3 5 6 8 7 5 8 11 6 4 6 10 16 16 17 15
29 27 28 28 28 27 26 25 27 25 22 25 23 19 14 8 1 3 7 6 16 3 3 3 3 3 3 3 3 2 3 2 2 2 1 2 1 2 3 5 3 5 8 7 4 4 7 14 15 14 15 17 17 14
28 28 29 29 28 28 26 26 25 26 24 21 20 14 4 2 2 3 5 7 4 3 3 3 3 3 2 2 3 2 2 2 1 2 3 3 2 5 7 7 8 10 10 12 9 13 14 17 16 15 16 14 18 13
28 29 30 30 29 28 27 25 24 23 21 23 6 3 2 4 10 8 2 1 4 4 3 3 3 4 3 2 2 3 1 3 3 3 3 3 4 6 6 8 7 12 17 19 17 8 12 14 15 15 14 12 14 13
29 30 31 32 30 29 28 26 25 25 20 2 2 5 3 5 2 3 4 5 5 6 5 3 5 2 3 4 2 2 3 2 4 3 5 3 4 5 10 10 9 14 18 13 7 10 14 22 19 17 14 14 14 14
31 31 31 31 31 30 29 29 31 8 4 6 5 2 1 5 3 5 5 3 4 6 6 6 3 2 2 3 3 2 3 1 5 4 3 3 4 5 4 7 11 14 13 10 13 18 18 17 17 17 16 15 13 14
32 32 32 32 31 31 30 33 27 19 14 3 2 1 3 4 7 6 8 3 3 5 6 6 6 3 2 3 3 3 4 4 3 2 4 5 2 1 5 9 11 11 16 17 17 16 19 18 17 19 17 14 15 13
34 33 32 32 33 32 33 35 30 15 4 3 4 4 5 5 5 5 5 6 5 4 11 13 5 3 2 2 3 4 1 3 1 3 6 3 6 7 7 10 16 15 17 18 19 19 20 19 17 16 15 14 14 13
33 32 33 31 33 34 34 36 27 4 2 3 4 5 7 4 3 3 3 3 3 7 12 6 4 3 2 3 1 4 2 4 5 5 4 2 10 11 12 12 15 16 16 16 17 18 18 19 17 15 13 12 13 12
37 27 18 32 36 36 36 31 5 2 2 2 5 5 4 3 2 2 3 2 6 10 4 3 4 4 2 3 3 7 8 7 4 3 2 7 10 10 12 13 13 14 16 16 15 17 17 17 17 14 12 12 11 11
35 4 34 36 37 37 36 4 3 4 4 5 5 4 5 6 8 4 4 6 11 11 7 4 5 6 4 3 4 5 6 3 3 4 5 8 13 13 14 15 14 16 16 16 17 16 16 15 15 15 15 8 10 9
12 14 38 40 33 20 4 1 3 5 8 6 5 5 2 2 4 4 3 9 8 9 3 5 5 4 6 7 4 4 3 2 4 7 7 9 11 13 13 17 15 16 17 16 17 15 16 15 14 10 13 11 10 9
16 22 41 41 16 5 4 3 3 5 8 3 3 3 3 4 5 5 6 9 3 3 5 2 4 4 4 4 4 3 6 4 8 7 8 11 13 15 14 15 16 16 17 17 16 11 10 11 11 10 9 9 7 6
32 39 43 34 17 3 4 2 3 3 3 3 2 2 3 4 2 2 5 3 3 3 2 2 3 2 2 1 1 5 8 11 13 12 10 9 10 15 15 14 12 16 13 14 12 14 11 9 7 8 7 8 7 6
28 23 35 15 1 2 2 4 4 4 2 3 2 3 3 2 3 4 2 0 3 2 2 1 0 2 1 2 4 8 11 11 9 7 15 13 10 11 11 11 13 11 12 11 10 9 9 8 7 7 7 5 5 5
15 33 6 2 1 1 2 3 2 4 3 2 2 2 2 3 2 1 0 3 2 1 1 2 2 5 7 8 8 9 10 14 14 12 16 15 12 12 11 11 12 10 10 9 10 9 8 7 7 7 7 6 6 5
21 5 3 3 3 4 3 3 3 4 3 2 0 1 3 2 1 1 2 2 2 0 2 3 5 9 10 12 13 12 13 17 13 12 11 11 11 10 10 10 10 13 10 7 8 9 8 9 8 8 7 6 6 4
8 3 5 6 4 4 2 3 2 2 2 3 2 3 3 2 2 2 3 1 2 2 4 9 9 10 8 11 8 8 9 10 12 11 11 13 12 9 9 10 8 8 9 10 9 9 8 7 9 7 6 5 4 5
6 3 5 3 1 3 3 2 2 2 3 3 2 3 3 2 2 1 3 3 4 6 6 7 7 6 10 8 7 7 10 10 12 14 9 11 13 10 9 9 8 8 10 11 10 10 8 7 6 7 6 5 6 6
4 5 5 6 2 3 4 3 3 3 3 4 3 3 2 2 3 4 4 7 6 7 9 9 10 10 7 7 9 9 8 9 12 11 9 9 12 13 12 12 10 3 4 9 12 12 10 8 8 8 5 5 6 7
4 3 2 1 2 3 2 1 3 4 3 4 3 2 2 3 4 3 1 2 5 5 7 7 8 9 9 9 7 7 8 8 8 9 8 6 6 9 12 14 13 7 9 11 11 13 12 9 8 6 5 2 3 5
3 2 5 2 2 1 4 3 4 6 5 2 4 2 5 4 4 2 2 2 8 9 9 7 8 9 10 10 9 9 10 12 14 14 12 10 7 6 9 8 9 16 10 11 10 9 9 9 8 7 6 5 4 3
3 1 3 4 5 5 3 2 3 2 0 2 4 3 3 0 1 1 4 8 10 11 10 10 9 9 10 9 8 8 11 13 20 22 18 10 6 2 3 9 9 7 8 8 12 12 10 9 8 7 7 5 4 3
3 2 4 3 4 1 2 2 2 1 2 2 3 3 2 2 3 4 7 8 9 9 10 10 10 12 13 13 12 9 2 6 10 14 14 12 8 8 8 10 9 8 8 9 10 9 13 10 9 4 4 3 3 3
1 2 4 3 3 2 2 2 1 1 3 3 3 3 3 2 3 4 2 6 8 10 11 10 9 9 12 12 13 14 8 2 9 11 12 9 12 10 9 9 10 13 9 10 9 8 8 4 4 6 6 6 5 5
2 3 4 3 1 1 2 2 2 2 2 2 1 2 2 2 2 1 1 7 9 9 10 11 11 10 10 9 7 6 11 9 10 12 18 12 10 10 12 15 16 14 10 9 8 8 8 8 6 6 6 7 6 6
3 4 4 3 3 2 2 3 3 2 3 2 2 1 1 3 4 3 0 1 7 10 10 9 8 8 10 11 11 10 11 9 13 15 19 20 21 18 16 16 15 12 11 9 7 8 8 7 5 6 6 6 6 6
Wind_Direction
233 234 232 230 227 224 221 220 221 224 227 232 222 213 216 205 200 183 232 208 162 246 275 303 329 315 148 161 146 212 50 326 39 76 125 198 136 206 123 169 176 163 143 181 84 85 277 189 89 164 205 169 125 80
230 229 227 225 223 219 216 216 219 220 225 223 209 206 224 207 200 184 236 209 183 240 281 319 278 276 269 203 158 142 207 223 186 92 131 112 113 104 152 208 43 200 179 177 179 211 234 223 198 117 150 138 135 111
227 225 223 221 218 216 213 213 215 219 223 211 204 202 209 192 194 178 212 203 124 174 291 255 265 280 211 214 180 160 240 232 255 184 158 148 137 136 154 225 151 232 164 153 98 237 227 234 195 146 125 110 111 124
223 221 218 217 214 211 210 211 211 213 208 201 199 204 190 199 196 182 183 228 181 155 247 278 241 252 219 212 194 194 125 58 113 70 113 136 143 188 190 149 159 187 138 170 257 279 280 244 196 139 100 109 108 99
219 216 213 212 208 206 206 204 207 202 198 201 194 191 194 206 191 204 228 236 211 188 292 298 296 232 240 236 184 188 131 188 162 67 84 178 130 124 33 74 223 190 179 167 216 209 170 200 152 137 132 137 133 124
214 210 208 206 200 200 199 198 196 189 192 191 188 193 196 189 177 158 265 214 221 156 284 286 318 274 253 145 151 161 125 83 53 124 175 187 317 113 140 189 245 205 191 180 213 122 82 99 94 83 120 118 114 108
207 204 201 196 194 195 194 192 186 183 193 194 192 194 184 165 141 192 195 244 183 136 240 282 284 243 181 122 85 81 42 102 99 263 155 141 141 97 130 191 236 207 169 138 131 113 67 175 150 118 115 110 101 96
199 196 195 190 190 190 189 186 182 181 198 186 185 186 166 138 288 292 268 267 174 150 266 223 257 270 207 138 96 97 107 94 28 129 29 135 61 64 258 225 217 137 123 135 155 45 121 115 114 114 117 118 108 106
194 192 189 185 185 185 185 183 178 180 188 175 160 137 91 99 197 235 224 180 340 209 221 181 186 230 178 99 98 78 113 71 90 163 223 105 182 215 220 189 184 175 170 147 101 106 119 125 130 130 126 121 116 118
189 189 185 181 180 180 180 176 172 168 159 140 87 101 189 219 199 143 41 180 197 208 236 226 150 232 106 79 60 111 72 134 153 232 114 162 250 248 224 210 176 153 137 131 118 116 124 132 138 136 131 124 122 124
185 184 181 179 178 177 174 170 164 154 137 76 133 192 241 206 131 165 203 193 205 178 194 208 185 143 357 120 110 34 143 140 159 213 171 216 263 230 199 203 162 156 158 162 130 134 152 146 144 132 121 118 121 121
183 181 180 177 174 173 171 167 161 132 149 168 159 196 271 192 182 187 207 222 215 191 160 157 147 115 110 93 104 151 97 106 197 143 121 249 246 218 174 148 143 150 139 119 127 127 131 132 130 124 123 123 120 118
182 178 179 178 173 171 167 161 154 136 118 80 76 299 200 185 182 210 179 202 203 170 168 153 128 134 80 68 90 123 154 192 105 102 215 228 219 162 141 131 123 118 112 112 114 114 116 117 120 124 122 121 121 119
177 176 173 174 171 168 168 161 148 136 94 111 153 233 242 174 212 199 203 170 208 153 147 150 117 123 101 131 133 125 119 129 142 223 225 240 181 151 131 131 125 125 122 122 123 122 119 118 117 116 119 124 124 123
175 170 170 173 170 166 165 158 149 108 117 174 192 222 232 237 261 221 192 120 157 170 146 123 77 117 146 135 134 110 128 217 213 227 218 178 142 134 130 128 126 124 124 123 126 122 121 121 118 116 119 121 118 115
165 164 174 171 169 164 161 150 126 85 157 214 233 251 275 263 251 254 141 151 167 162 118 78 117 94 180 149 149 208 161 212 237 201 152 127 126 123 127 123 122 123 123 122 121 122 120 121 123 118 111 115 117 122
165 143 174 166 162 161 152 109 134 153 191 225 233 225 234 268 279 263 166 167 163 160 178 135 123 164 130 179 211 178 197 230 189 126 129 135 133 131 125 118 119 121 119 119 119 118 114 115 117 116 117 121 120 118
169 155 161 161 158 135 125 81 143 177 221 232 246 246 162 208 268 248 234 160 163 176 124 185 126 153 180 179 224 212 175 114 89 115 118 122 121 120 122 122 121 122 119 119 119 119 121 123 121 122 126 122 116 122
158 157 159 159 147 113 129 171 197 208 218 214 199 215 214 265 239 248 201 162 65 97 120 64 135 178 196 216 187 143 137 131 137 120 116 119 117 117 119 117 117 118 119 123 125 125 125 123 127 130 132 133 128 128
149 155 158 149 158 118 109 149 178 241 241 215 201 226 141 244 205 201 151 124 90 107 81 142 218 251 201 265 142 147 142 139 135 125 121 115 118 122 127 126 122 122 116 113 110 116 116 113 117 127 130 133 133 142
141 155 143 159 44 62 122 152 191 200 210 248 196 174 213 140 143 153 119 123 98 89 131 133 259 293 31 56 104 124 133 147 151 144 140 133 134 124 120 121 120 122 124 127 123 118 119 129 129 123 121 112 115 115
137 138 127 102 151 195 234 196 202 167 186 222 225 247 92 90 160 84 154 72 79 117 159 128 162 125 107 110 123 126 125 108 111 112 110 122 128 131 133 130 127 126 125 129 130 128 126 124 117 112 114 115 108 118
127 111 86 139 160 206 225 138 211 179 170 128 324 121 66 91 88 214 109 71 105 135 99 97 93 93 106 105 101 102 112 120 121 122 124 124 120 125 124 121 132 127 121 116 125 126 123 119 111 114 115 113 114 109
93 100 146 185 187 197 150 188 212 140 103 76 270 133 99 126 166 72 100 107 108 108 117 132 118 111 104 92 103 117 123 124 118 116 127 124 121 120 123 120 117 114 123 128 125 122 123 116 119 120 119 119 129 141
106 205 134 200 211 116 176 165 143 113 90 212 210 112 142 174 90 76 165 165 152 144 144 137 127 137 116 119 118 119 132 139 133 125 130 125 120 112 104 97 103 123 133 125 127 126 120 114 116 127 137 141 149 148
120 212 156 175 153 155 178 159 182 113 85 6 63 106 121 107 144 211 199 165 159 159 161 157 145 121 125 138 135 142 142 136 127 119 129 144 137 131 128 131 134 119 138 135 134 132 131 130 134 138 141 153 141 137
124 183 175 219 144 98 89 82 82 83 134 190 172 116 128 153 227 241 202 184 156 151 150 143 144 136 140 133 121 127 126 123 115 117 104 99 117 133 147 150 152 147 142 136 136 140 142 144 146 148 146 115 159 159
135 99 132 105 84 240 145 77 128 188 195 185 111 121 156 199 210 213 196 137 119 122 115 113 120 126 130 132 127 120 110 110 105 101 88 63 52 75 100 100 120 130 128 134 132 130 138 145 151 152 154 153 168 183
78 51 85 44 25 29 32 167 190 210 198 122 117 157 159 342 185 88 124 132 127 126 126 124 118 116 111 113 117 129 140 139 141 137 127 131 122 73 94 125 125 121 124 117 115 128 136 140 143 146 150 149 143 125
116 148 102 69 83 322 267 209 219 271 15 126 111 108 65 32 28 113 134 139 137 138 137 136 139 141 141 140 135 133 48 138 151 145 146 157 154 142 142 135 131 128 120 116 114 107 100 99 103 83 105 111 119 131
58 64 82 88 145 215 233 199 138 58 35 36 25 71 101 116 44 20 77 130 128 131 135 139 141 150 146 149 150 143 131 31 113 109 110 123 133 139 141 137 132 128 128 132 135 138 133 117 137 141 151 164 175 171
102 119 125 91 69 324 10 61 77 79 59 62 70 68 50 77 102 112 140 141 139 143 149 146 150 154 150 144 132 94 102 120 122 131 131 133 134 135 132 130 130 133 134 133 137 143 150 148 154 166 174 187 189 194
56 59 64 82 41 15 10 71 36 72 50 69 71 97 116 144 165 209 24 110 156 150 152 149 140 133 132 130 128 125 122 122 129 127 131 133 135 134 132 134 136 136 134 136 141 147 151 142 160 172 179 186 192 197